Weather History for KFIT - January, 2013

Change the Weather History Date:

Tuesday, January 22, 2013

  Actual Average (KORH) Record (KORH)
Temperature  
Mean Temperature 16 °F 24 °F  
Max Temperature 21 °F 31 °F 59 °F (1959)
Min Temperature 10 °F 17 °F -10 °F (1976)
Degree Days  
Heating Degree Days 50 41  
Month to date heating degree days 898  
Since 1 July heating degree days 3402  
Cooling Degree Days 0 0  
Month to date cooling degree days 0  
Year to date cooling degree days 0  
Moisture  
Dew Point 5 °F    
Average Humidity 61    
Maximum Humidity 88    
Minimum Humidity 34    
Precipitation  
Precipitation 0.00 in 0.12 in 1.64 in (1958)
Month to date precipitation 2.47  
Year to date precipitation 2.47  
Sea Level Pressure  
Sea Level Pressure 29.89 in    
Wind  
Wind Speed 6 mph (WNW)    
Max Wind Speed 22 mph    
Max Gust Speed 30 mph    
Visibility 10 miles    
Events      
T = Trace of Precipitation, MM = Missing Value Source: NWS Daily Summary

Daily Weather History Graph

Daily Weather History Graph

Search for Another Location

Airport or City:

Trip Planner

Search our weather history database for the weather conditions in past years. The results will help you decide how hot, cold, wet, or windy it might be!

Date:

Astronomy

Jan. 22, 2013 Rise Set
Actual Time 7:09 AM EST 4:48 PM EST
Civil Twilight 6:39 AM EST 5:18 PM EST
Nautical Twilight 6:04 AM EST 5:53 PM EST
Astronomical Twilight 5:31 AM EST 6:26 PM EST
Moon 1:07 PM EST (1/22) 3:29 AM EST (1/22)
Length of Visible Light 10h 39m
Length of Day
9h 38m
Waxing Gibbous, 82% of the Moon is Illuminated
Jan 22
Waxing Gibbous
Jan 26
Full
Feb 3
Last Quarter
Feb 10
New
Feb 17
First Quarter

Hourly Weather History & Observations

Time (EST) Temp. Windchill Dew Point Humidity Pressure Visibility Wind Dir Wind Speed Gust Speed Precip Events Conditions
12:19 AM 21.2 °F - 17.6 °F 86% 29.78 in 10.0 mi Calm Calm - N/A   Overcast
12:52 AM 21.9 °F 17.2 °F 18.0 °F 85% 29.79 in 10.0 mi North 3.5 mph - N/A   Overcast
1:21 AM 21.2 °F - 17.6 °F 86% 29.77 in 10.0 mi Calm Calm - N/A   Overcast
1:41 AM 21.2 °F 16.4 °F 17.6 °F 86% 29.77 in 10.0 mi SSE 3.5 mph - N/A   Mostly Cloudy
1:52 AM 19.0 °F - 16.0 °F 88% 29.78 in 10.0 mi Calm Calm - N/A   Partly Cloudy
2:52 AM 15.1 °F - 12.0 °F 88% 29.78 in 9.0 mi Calm Calm - N/A   Clear
3:52 AM 14.0 °F - 10.9 °F 88% 29.77 in 10.0 mi Calm Calm - N/A   Mostly Cloudy
4:52 AM 19.0 °F 10.0 °F 14.0 °F 81% 29.77 in 10.0 mi West 6.9 mph - N/A   Mostly Cloudy
5:52 AM 18.0 °F 12.7 °F 12.0 °F 78% 29.79 in 10.0 mi NW 3.5 mph - N/A   Clear
6:52 AM 18.0 °F 5.4 °F 9.0 °F 68% 29.82 in 10.0 mi WNW 11.5 mph 19.6 mph N/A   Clear
7:52 AM 18.0 °F 4.2 °F 8.1 °F 65% 29.83 in 10.0 mi WNW 13.8 mph 21.9 mph N/A   Clear
8:52 AM 19.0 °F 4.5 °F 8.1 °F 62% 29.86 in 10.0 mi WNW 16.1 mph 26.5 mph N/A   Clear
9:52 AM 19.9 °F 5.2 °F 6.1 °F 55% 29.88 in 10.0 mi WNW 17.3 mph 24.2 mph N/A   Clear
10:52 AM 21.0 °F 5.4 °F 3.9 °F 48% 29.88 in 10.0 mi WNW 20.7 mph 26.5 mph N/A   Clear
11:52 AM 21.0 °F 5.0 °F 1.9 °F 44% 29.87 in 10.0 mi WNW 21.9 mph 29.9 mph N/A   Clear
12:52 PM 21.9 °F 9.2 °F 1.0 °F 40% 29.87 in 10.0 mi West 13.8 mph 26.5 mph N/A   Clear
1:52 PM 21.9 °F 7.8 °F -0.0 °F 38% 29.89 in 10.0 mi WNW 17.3 mph - N/A   Clear
2:52 PM 21.9 °F 7.8 °F -2.9 °F 34% 29.91 in 10.0 mi West 17.3 mph 25.3 mph N/A   Scattered Clouds
3:52 PM 19.0 °F 5.0 °F -2.9 °F 38% 29.94 in 10.0 mi WNW 15.0 mph 20.7 mph N/A   Clear
4:52 PM 17.1 °F 4.3 °F -2.9 °F 41% 29.97 in 10.0 mi WNW 11.5 mph 21.9 mph N/A   Partly Cloudy
5:52 PM 16.0 °F 4.4 °F -2.9 °F 43% 30.00 in 10.0 mi West 9.2 mph - N/A   Clear
6:52 PM 15.1 °F 4.2 °F -4.0 °F 43% 30.03 in 10.0 mi West 8.1 mph - N/A   Clear
7:52 PM 14.0 °F 3.9 °F -2.9 °F 47% 30.04 in 10.0 mi WNW 6.9 mph - N/A   Clear
8:52 PM 12.9 °F 2.6 °F -0.9 °F 54% 30.06 in 10.0 mi WNW 6.9 mph - N/A   Clear
9:52 PM 12.0 °F 5.9 °F -0.9 °F 56% 30.07 in 10.0 mi WSW 3.5 mph - N/A   Clear
10:52 PM 10.0 °F 1.8 °F -2.0 °F 58% 30.08 in 10.0 mi WNW 4.6 mph - N/A   Clear
11:52 PM 10.0 °F 0.4 °F -6.0 °F 48% 30.08 in 10.0 mi WNW 5.8 mph - N/A   Clear